• En Colombia
  • Lista de países
  • Para 7 días
  • Temperatura del agua
  • El tiempo en el mapa
  • Informadores
  • user-avatar
    Iniciar sesión

    Tiempo cada hora Wiktoria

    Hoy, 21 Enero, Martes

    Tiempo Temperatura Precipitaciones Viento Presión Humedad
    00:00 +18°C° 0 mm 4 mps 743 mmHg 84%
    01:00 +17°C° 0 mm 4 mps 743 mmHg 85%
    02:00 +17°C° 0 mm 4 mps 743 mmHg 85%
    03:00 +15°C° 0 mm 4 mps 743 mmHg 85%
    04:00 +14°C° 0 mm 4 mps 743 mmHg 84%
    05:00 +15°C° 0 mm 4 mps 744 mmHg 83%
    06:00 +15°C° 0 mm 4 mps 744 mmHg 81%
    07:00 +15°C° 0 mm 4 mps 745 mmHg 80%
    08:00 +18°C° 0 mm 4 mps 745 mmHg 74%
    09:00 +19°C° 0 mm 3 mps 745 mmHg 67%
    10:00 +21°C° 0 mm 3 mps 745 mmHg 63%
    11:00 +22°C° 0 mm 3 mps 745 mmHg 58%
    12:00 +24°C° 0 mm 3 mps 745 mmHg 53%
    13:00 +26°C° 0 mm 3 mps 744 mmHg 48%
    14:00 +26°C° 0 mm 2 mps 744 mmHg 44%
    15:00 +27°C° 0 mm 2 mps 743 mmHg 40%
    16:00 +27°C° 0 mm 3 mps 743 mmHg 40%
    17:00 +26°C° 0 mm 2 mps 743 mmHg 42%
    18:00 +26°C° 0 mm 2 mps 743 mmHg 44%
    19:00 +25°C° 0 mm 1 mps 744 mmHg 45%
    20:00 +24°C° 0 mm 1 mps 744 mmHg 47%
    21:00 +23°C° 0 mm 1 mps 744 mmHg 49%
    22:00 +21°C° 0 mm 2 mps 744 mmHg 52%
    23:00 +20°C° 0 mm 2 mps 744 mmHg 55%

    Mañana, 22 Enero, Miércoles

    Tiempo Temperatura Precipitaciones Viento Presión Humedad
    00:00 +20°C° 0 mm 2 mps 743 mmHg 58%
    01:00 +19°C° 0 mm 2 mps 743 mmHg 60%
    02:00 +19°C° 0 mm 3 mps 743 mmHg 62%
    03:00 +19°C° 0 mm 3 mps 743 mmHg 64%
    04:00 +18°C° 0 mm 3 mps 742 mmHg 66%
    05:00 +19°C° 0 mm 4 mps 742 mmHg 63%
    06:00 +20°C° 0 mm 4 mps 743 mmHg 61%
    07:00 +21°C° 0 mm 5 mps 743 mmHg 58%
    08:00 +23°C° 0 mm 6 mps 742 mmHg 49%
    09:00 +27°C° 0 mm 7 mps 742 mmHg 40%
    10:00 +30°C° 0 mm 7 mps 742 mmHg 32%
    11:00 +32°C° 0 mm 8 mps 741 mmHg 29%
    12:00 +34°C° 0 mm 9 mps 740 mmHg 26%
    13:00 +35°C° 0 mm 9 mps 739 mmHg 23%
    14:00 +35°C° 0 mm 9 mps 738 mmHg 22%
    15:00 +37°C° 0 mm 9 mps 737 mmHg 20%
    16:00 +37°C° 0 mm 9 mps 736 mmHg 19%
    17:00 +35°C° 0 mm 7 mps 736 mmHg 21%
    18:00 +34°C° 0 mm 6 mps 736 mmHg 23%
    19:00 +33°C° 0 mm 5 mps 735 mmHg 25%
    20:00 +30°C° 0 mm 6 mps 736 mmHg 31%
    21:00 +29°C° 0 mm 7 mps 736 mmHg 36%
    22:00 +28°C° 0 mm 7 mps 736 mmHg 42%
    23:00 +26°C° 0.1 mm 7 mps 736 mmHg 50%

    Pasado mañana, 23 Enero, Jueves

    Tiempo Temperatura Precipitaciones Viento Presión Humedad
    00:00 +23°C° 0.1 mm 7 mps 736 mmHg 58%
    01:00 +21°C° 0.1 mm 6 mps 736 mmHg 66%
    02:00 +20°C° 0.4 mm 6 mps 736 mmHg 70%
    03:00 +19°C° 0.4 mm 5 mps 736 mmHg 74%
    04:00 +17°C° 0.4 mm 5 mps 736 mmHg 79%
    05:00 +18°C° 0.6 mm 3 mps 736 mmHg 77%
    06:00 +18°C° 0.6 mm 2 mps 737 mmHg 76%
    07:00 +18°C° 0.6 mm 1 mps 738 mmHg 74%
    08:00 +18°C° 0.3 mm 2 mps 738 mmHg 71%
    09:00 +19°C° 0.3 mm 4 mps 738 mmHg 67%
    10:00 +20°C° 0.3 mm 6 mps 739 mmHg 64%
    11:00 +21°C° 0.1 mm 6 mps 739 mmHg 56%
    12:00 +22°C° 0.1 mm 7 mps 739 mmHg 49%
    13:00 +23°C° 0.1 mm 7 mps 739 mmHg 42%
    14:00 +23°C° 0 mm 7 mps 739 mmHg 40%
    15:00 +23°C° 0 mm 7 mps 739 mmHg 38%
    16:00 +24°C° 0 mm 7 mps 739 mmHg 36%
    17:00 +23°C° 0 mm 6 mps 740 mmHg 39%
    18:00 +22°C° 0 mm 5 mps 740 mmHg 42%
    19:00 +21°C° 0 mm 4 mps 741 mmHg 45%
    20:00 +19°C° 0 mm 3 mps 741 mmHg 47%
    21:00 +18°C° 0 mm 3 mps 741 mmHg 49%
    22:00 +17°C° 0 mm 2 mps 742 mmHg 50%
    23:00 +16°C° 0 mm 2 mps 742 mmHg 51%

    24 Enero, Viernes

    Tiempo Temperatura Precipitaciones Viento Presión Humedad
    00:00 +16°C° 0 mm 2 mps 742 mmHg 52%
    01:00 +15°C° 0 mm 2 mps 742 mmHg 53%
    02:00 +14°C° 0 mm 2 mps 743 mmHg 55%
    03:00 +14°C° 0 mm 2 mps 743 mmHg 57%
    04:00 +13°C° 0 mm 2 mps 744 mmHg 58%
    05:00 +14°C° 0 mm 2 mps 744 mmHg 58%
    06:00 +13°C° 0 mm 3 mps 745 mmHg 57%
    07:00 +14°C° 0 mm 3 mps 745 mmHg 57%
    08:00 +16°C° 0 mm 3 mps 746 mmHg 52%
    09:00 +18°C° 0 mm 3 mps 746 mmHg 47%
    10:00 +20°C° 0 mm 4 mps 747 mmHg 42%
    11:00 +21°C° 0 mm 4 mps 747 mmHg 40%
    12:00 +22°C° 0 mm 4 mps 746 mmHg 37%
    13:00 +25°C° 0 mm 4 mps 746 mmHg 35%
    14:00 +25°C° 0 mm 4 mps 746 mmHg 34%
    15:00 +26°C° 0 mm 4 mps 745 mmHg 33%
    16:00 +27°C° 0 mm 4 mps 745 mmHg 32%
    17:00 +26°C° 0 mm 4 mps 746 mmHg 36%
    18:00 +25°C° 0 mm 3 mps 746 mmHg 40%
    19:00 +24°C° 0 mm 3 mps 746 mmHg 44%
    20:00 +21°C° 0 mm 3 mps 747 mmHg 47%
    21:00 +20°C° 0 mm 2 mps 747 mmHg 50%
    22:00 +19°C° 0 mm 2 mps 748 mmHg 53%
    23:00 +19°C° 0 mm 1 mps 748 mmHg 54%

    25 Enero, Sábado

    Tiempo Temperatura Precipitaciones Viento Presión Humedad
    00:00 +19°C° 0 mm 1 mps 748 mmHg 55%
    01:00 +16°C° 0 mm 0 mps 748 mmHg 56%
    02:00 +16°C° 0 mm 0 mps 748 mmHg 59%
    03:00 +16°C° 0 mm 0 mps 748 mmHg 61%
    04:00 +15°C° 0 mm 0 mps 748 mmHg 63%
    05:00 +16°C° 0 mm 0 mps 748 mmHg 62%
    06:00 +17°C° 0 mm 0 mps 749 mmHg 61%
    07:00 +17°C° 0 mm 0 mps 749 mmHg 60%
    08:00 +21°C° 0 mm 1 mps 749 mmHg 55%
    09:00 +23°C° 0 mm 1 mps 749 mmHg 49%
    10:00 +25°C° 0 mm 1 mps 749 mmHg 43%
    11:00 +26°C° 0 mm 2 mps 748 mmHg 39%
    12:00 +28°C° 0 mm 2 mps 748 mmHg 35%
    13:00 +29°C° 0 mm 2 mps 748 mmHg 31%
    14:00 +30°C° 0 mm 2 mps 747 mmHg 29%
    15:00 +30°C° 0 mm 2 mps 746 mmHg 27%
    16:00 +31°C° 0 mm 2 mps 746 mmHg 25%
    17:00 +30°C° 0 mm 2 mps 746 mmHg 28%
    18:00 +29°C° 0 mm 2 mps 746 mmHg 31%
    19:00 +28°C° 0 mm 2 mps 747 mmHg 34%
    20:00 +27°C° 0 mm 2 mps 747 mmHg 36%
    21:00 +25°C° 0 mm 2 mps 747 mmHg 38%
    22:00 +24°C° 0 mm 2 mps 747 mmHg 41%
    23:00 +23°C° 0 mm 2 mps 747 mmHg 45%

    26 Enero, Domingo

    Tiempo Temperatura Precipitaciones Viento Presión Humedad
    00:00 +21°C° 0 mm 2 mps 747 mmHg 49%
    01:00 +20°C° 0 mm 2 mps 747 mmHg 54%
    02:00 +20°C° 0 mm 2 mps 747 mmHg 55%
    03:00 +20°C° 0 mm 1 mps 747 mmHg 57%
    04:00 +19°C° 0 mm 1 mps 747 mmHg 59%
    05:00 +20°C° 0 mm 1 mps 747 mmHg 57%
    06:00 +21°C° 0 mm 1 mps 748 mmHg 56%
    07:00 +21°C° 0 mm 1 mps 748 mmHg 54%
    08:00 +24°C° 0 mm 1 mps 748 mmHg 47%
    09:00 +25°C° 0 mm 0 mps 748 mmHg 41%
    10:00 +27°C° 0 mm 0 mps 748 mmHg 34%
    11:00 +30°C° 0 mm 1 mps 747 mmHg 31%
    12:00 +31°C° 0 mm 2 mps 747 mmHg 28%
    13:00 +32°C° 0 mm 2 mps 746 mmHg 25%
    14:00 +34°C° 0 mm 2 mps 746 mmHg 24%
    15:00 +35°C° 0 mm 2 mps 745 mmHg 23%
    16:00 +34°C° 0 mm 1 mps 745 mmHg 22%
    17:00 +33°C° 0 mm 1 mps 745 mmHg 25%
    18:00 +32°C° 0 mm 1 mps 745 mmHg 28%
    19:00 +31°C° 0 mm 1 mps 745 mmHg 30%
    20:00 +29°C° 0 mm 2 mps 745 mmHg 35%
    21:00 +27°C° 0 mm 2 mps 746 mmHg 40%
    22:00 +25°C° 0 mm 3 mps 746 mmHg 45%
    23:00 +25°C° 0 mm 3 mps 745 mmHg 50%
    Mostrar más